Location: Çayiçi
(36.4667°N, 30.2333°E)
Time: 01:45:01
(UTC+00:00)

Cosmos 2058 Rocket - Pass Details

Date: 09 February 2023
Orbit: 610 x 637 km, 82.5° (Epoch: 01 April)

Event Time Altitude Azimuth Distance (km) Brightness Sun altitude
Rises 16:41:41 0° 346° (NNW) 2,907 6.6 -14.2°
Reaches altitude 10° 16:43:58 10° 340° (NNW) 2,001 5.8 -14.7°
Maximum altitude 16:48:13 46° 267° (W) 842 4.2 -15.5°
Drops below altitude 10° 16:52:28 10° 194° (SSW) 2,004 5.9 -16.4°
Sets 16:54:45 0° 189° (S) 2,911 6.7 -16.9°
